Time,TemperatureF,DewpointF,PressureIn,WindDirection,WindDirectionDegrees,WindSpeedMPH,WindSpeedGustMPH,Humidity,HourlyPrecipIn,Conditions,Clouds,dailyrainin,SoftwareType,DateUTC
2013-01-16 00:03:00,24.1,20.0,30.10,NW,316,1.3,1.5,84,0.00,SCT,,0.00,WeatherDisplay:10.37,2013-01-16 06:03:00,
2013-01-16 00:08:00,24.1,20.0,30.09,NW,316,0.0,0.0,84,0.00,SCT,,0.00,WeatherDisplay:10.37,2013-01-16 06:08:00,
2013-01-16 00:13:00,23.9,19.8,30.09,NW,316,0.7,1.1,84,0.00,OVC,,0.00,WeatherDisplay:10.37,2013-01-16 06:13:00,
2013-01-16 00:18:00,23.9,19.8,30.08,NW,316,0.0,0.0,84,0.00,OVC,,0.00,WeatherDisplay:10.37,2013-01-16 06:18:00,
2013-01-16 00:23:00,23.8,19.7,30.08,NW,316,0.0,0.0,84,0.00,OVC,,0.00,WeatherDisplay:10.37,2013-01-16 06:23:00,
2013-01-16 00:28:00,23.8,19.7,30.08,NW,316,1.0,3.5,84,0.00,OVC,,0.00,WeatherDisplay:10.37,2013-01-16 06:28:00,
2013-01-16 00:33:00,23.8,19.7,30.08,NW,316,0.0,0.0,84,0.00,BKN,,0.00,WeatherDisplay:10.37,2013-01-16 06:33:00,
2013-01-16 00:38:00,23.8,19.7,30.08,NW,316,0.8,1.1,84,0.00,BKN,,0.00,WeatherDisplay:10.37,2013-01-16 06:38:00,
2013-01-16 00:43:00,23.8,19.9,30.08,NW,316,0.0,0.0,85,0.00,BKN,,0.00,WeatherDisplay:10.37,2013-01-16 06:43:00,
2013-01-16 00:48:00,23.8,19.7,30.08,NW,316,2.3,2.3,84,0.00,BKN,,0.00,WeatherDisplay:10.37,2013-01-16 06:48:00,
2013-01-16 00:53:00,23.8,19.7,30.08,NW,316,0.9,0.0,84,0.00,BKN,,0.00,WeatherDisplay:10.37,2013-01-16 06:53:00,
2013-01-16 00:58:00,23.6,19.5,30.07,NW,316,1.7,3.5,84,0.00,BKN,,0.00,WeatherDisplay:10.37,2013-01-16 06:58:00,
2013-01-16 01:03:00,23.6,19.5,30.07,NW,316,0.0,1.1,84,0.00,BKN,,0.00,WeatherDisplay:10.37,2013-01-16 07:03:00,
2013-01-16 01:08:00,23.6,19.8,30.07,NW,316,0.9,3.5,85,0.00,BKN,,0.00,WeatherDisplay:10.37,2013-01-16 07:08:00,
2013-01-16 01:13:00,23.6,19.8,30.07,NW,316,0.5,3.5,85,0.00,OVC,,0.00,WeatherDisplay:10.37,2013-01-16 07:13:00,
2013-01-16 01:18:00,23.6,19.8,30.08,NW,316,0.2,1.1,85,0.00,OVC,,0.00,WeatherDisplay:10.37,2013-01-16 07:18:00,
2013-01-16 01:23:00,23.6,19.8,30.08,NW,316,0.3,1.1,85,0.00,OVC,,0.00,WeatherDisplay:10.37,2013-01-16 07:23:00,
2013-01-16 01:28:00,23.6,19.8,30.08,NW,316,0.0,0.0,85,0.00,OVC,,0.00,WeatherDisplay:10.37,2013-01-16 07:28:00,
2013-01-16 01:33:00,23.6,19.8,30.08,NW,316,0.0,1.1,85,0.00,SCT,,0.00,WeatherDisplay:10.37,2013-01-16 07:33:00,
2013-01-16 01:38:00,23.6,19.8,30.09,NW,316,0.0,1.1,85,0.00,SCT,,0.00,WeatherDisplay:10.37,2013-01-16 07:38:00,
2013-01-16 01:43:00,23.6,19.8,30.09,NW,316,0.0,0.0,85,0.00,SCT,,0.00,WeatherDisplay:10.37,2013-01-16 07:43:00,
2013-01-16 01:48:00,23.6,19.8,30.09,NW,316,0.0,0.0,85,0.00,SCT,,0.00,WeatherDisplay:10.37,2013-01-16 07:48:00,
2013-01-16 01:53:00,23.6,19.8,30.10,NW,316,1.3,1.3,85,0.00,BKN,,0.00,WeatherDisplay:10.37,2013-01-16 07:53:00,
2013-01-16 01:58:00,23.6,19.8,30.10,NW,316,0.0,0.0,85,0.00,BKN,,0.00,WeatherDisplay:10.37,2013-01-16 07:58:00,
2013-01-16 02:03:00,23.5,19.7,30.10,NW,316,0.0,0.0,85,0.00,BKN,,0.00,WeatherDisplay:10.37,2013-01-16 08:03:00,
2013-01-16 02:08:00,23.5,19.7,30.10,NW,316,0.0,0.0,85,0.00,BKN,,0.00,WeatherDisplay:10.37,2013-01-16 08:08:00,
2013-01-16 02:13:00,23.5,19.7,30.10,NW,316,0.0,0.0,85,0.00,BKN,,0.00,WeatherDisplay:10.37,2013-01-16 08:13:00,
2013-01-16 02:18:00,23.5,19.7,30.09,NW,316,0.2,1.5,85,0.00,BKN,,0.00,WeatherDisplay:10.37,2013-01-16 08:18:00,
2013-01-16 02:23:00,23.5,19.7,30.08,NW,316,1.7,3.5,85,0.00,BKN,,0.00,WeatherDisplay:10.37,2013-01-16 08:23:00,
2013-01-16 02:28:00,23.5,19.7,30.08,NW,316,0.0,0.0,85,0.00,BKN,,0.00,WeatherDisplay:10.37,2013-01-16 08:28:00,
2013-01-16 02:33:00,23.5,19.7,30.08,NW,316,0.8,0.0,85,0.00,BKN,,0.00,WeatherDisplay:10.37,2013-01-16 08:33:00,
2013-01-16 02:39:00,23.5,19.7,30.08,NW,316,0.0,0.0,85,0.00,BKN,,0.00,WeatherDisplay:10.37,2013-01-16 08:39:00,
2013-01-16 02:44:00,23.5,19.7,30.08,NW,316,0.0,0.0,85,0.00,BKN,,0.00,WeatherDisplay:10.37,2013-01-16 08:44:00,
2013-01-16 02:49:00,23.6,19.8,30.07,NW,316,0.0,0.0,85,0.00,BKN,,0.00,WeatherDisplay:10.37,2013-01-16 08:49:00,
2013-01-16 02:54:00,23.6,19.8,30.07,NW,316,0.0,0.0,85,0.00,OVC,,0.00,WeatherDisplay:10.37,2013-01-16 08:54:00,
2013-01-16 02:59:00,23.6,19.8,30.07,NW,316,0.0,0.0,85,0.00,OVC,,0.00,WeatherDisplay:10.37,2013-01-16 08:59:00,
2013-01-16 03:04:00,23.8,19.9,30.07,NW,316,0.0,0.0,85,0.00,OVC,,0.00,WeatherDisplay:10.37,2013-01-16 09:04:00,
2013-01-16 03:09:00,23.8,19.9,30.07,NW,316,0.2,1.1,85,0.00,OVC,,0.00,WeatherDisplay:10.37,2013-01-16 09:09:00,
2013-01-16 03:14:00,23.8,19.9,30.07,NW,316,1.2,1.2,85,0.00,OVC,,0.00,WeatherDisplay:10.37,2013-01-16 09:14:00,
2013-01-16 03:19:00,23.8,19.9,30.07,NW,316,1.8,3.5,85,0.00,OVC,,0.00,WeatherDisplay:10.37,2013-01-16 09:19:00,
2013-01-16 03:24:00,23.8,19.9,30.07,NW,316,1.1,1.5,85,0.00,OVC,,0.00,WeatherDisplay:10.37,2013-01-16 09:24:00,
2013-01-16 03:29:00,23.8,19.9,30.07,NW,316,0.3,1.5,85,0.00,OVC,,0.00,WeatherDisplay:10.37,2013-01-16 09:29:00,
2013-01-16 03:34:00,23.9,20.0,30.07,NW,316,0.8,1.5,85,0.00,OVC,,0.00,WeatherDisplay:10.37,2013-01-16 09:34:00,
2013-01-16 03:39:00,23.9,20.3,30.07,NW,316,2.1,3.5,86,0.00,OVC,,0.00,WeatherDisplay:10.37,2013-01-16 09:39:00,
2013-01-16 03:44:00,23.9,20.3,30.07,NW,316,0.0,0.0,86,0.00,OVC,,0.00,WeatherDisplay:10.37,2013-01-16 09:44:00,
2013-01-16 03:49:00,23.9,20.3,30.07,NW,316,1.0,1.1,86,0.00,OVC,,0.00,WeatherDisplay:10.37,2013-01-16 09:49:00,
2013-01-16 03:54:00,23.9,20.3,30.06,NW,316,0.1,1.1,86,0.00,OVC,,0.00,WeatherDisplay:10.37,2013-01-16 09:54:00,
2013-01-16 03:59:00,23.9,20.0,30.06,NW,316,0.2,1.5,85,0.00,OVC,,0.00,WeatherDisplay:10.37,2013-01-16 09:59:00,
2013-01-16 04:04:00,23.8,19.9,30.06,NW,316,0.0,0.0,85,0.00,OVC,,0.00,WeatherDisplay:10.37,2013-01-16 10:04:00,
2013-01-16 04:09:00,23.6,19.8,30.05,NW,316,0.0,0.0,85,0.00,OVC,,0.00,WeatherDisplay:10.37,2013-01-16 10:09:00,
2013-01-16 04:14:00,23.5,19.7,30.05,NW,316,0.0,0.0,85,0.00,OVC,,0.00,WeatherDisplay:10.37,2013-01-16 10:14:00,
2013-01-16 04:19:00,23.3,19.5,30.05,NW,316,0.0,0.0,85,0.00,OVC,,0.00,WeatherDisplay:10.37,2013-01-16 10:19:00,
2013-01-16 04:24:00,23.0,19.2,30.05,NW,316,0.0,0.0,85,0.00,OVC,,0.00,WeatherDisplay:10.37,2013-01-16 10:24:00,
2013-01-16 04:29:00,22.9,19.1,30.04,NW,316,0.0,0.0,85,0.00,OVC,,0.00,WeatherDisplay:10.37,2013-01-16 10:29:00,
2013-01-16 04:34:00,22.5,18.7,30.04,NW,316,0.0,0.0,85,0.00,SCT,,0.00,WeatherDisplay:10.37,2013-01-16 10:34:00,
2013-01-16 04:39:00,22.4,18.8,30.04,NW,316,0.0,0.0,86,0.00,SCT,,0.00,WeatherDisplay:10.37,2013-01-16 10:39:00,
2013-01-16 04:44:00,22.1,18.6,30.05,NW,316,0.0,0.0,86,0.00,SCT,,0.00,WeatherDisplay:10.37,2013-01-16 10:44:00,
2013-01-16 04:49:00,21.9,18.4,30.05,NW,316,0.0,0.0,86,0.00,SCT,,0.00,WeatherDisplay:10.37,2013-01-16 10:49:00,
2013-01-16 04:54:00,21.6,18.1,30.05,NW,316,0.0,0.0,86,0.00,SCT,,0.00,WeatherDisplay:10.37,2013-01-16 10:54:00,
2013-01-16 04:59:00,21.4,17.9,30.05,NW,316,0.0,0.0,86,0.00,SCT,,0.00,WeatherDisplay:10.37,2013-01-16 10:59:00,
2013-01-16 05:04:00,21.1,17.6,30.04,NW,316,0.0,0.0,86,0.00,SCT,,0.00,WeatherDisplay:10.37,2013-01-16 11:04:00,
2013-01-16 05:09:00,21.1,17.6,30.04,NW,316,0.0,0.0,86,0.00,SCT,,0.00,WeatherDisplay:10.37,2013-01-16 11:09:00,
2013-01-16 05:14:00,21.0,17.7,30.04,NW,316,0.0,0.0,87,0.00,SCT,,0.00,WeatherDisplay:10.37,2013-01-16 11:14:00,
2013-01-16 05:19:00,20.8,17.5,30.04,NW,316,0.0,0.0,87,0.00,SCT,,0.00,WeatherDisplay:10.37,2013-01-16 11:19:00,
2013-01-16 05:24:00,20.6,17.3,30.03,NW,316,0.0,0.0,87,0.00,SCT,,0.00,WeatherDisplay:10.37,2013-01-16 11:24:00,
2013-01-16 05:29:00,20.6,17.3,30.03,NW,316,0.0,0.0,87,0.00,SCT,,0.00,WeatherDisplay:10.37,2013-01-16 11:29:00,
2013-01-16 05:34:00,20.5,17.2,30.03,NW,316,0.0,0.0,87,0.00,CLR,,0.00,WeatherDisplay:10.37,2013-01-16 11:34:00,
2013-01-16 05:39:00,20.3,17.0,30.03,NW,316,0.0,0.0,87,0.00,CLR,,0.00,WeatherDisplay:10.37,2013-01-16 11:39:00,
2013-01-16 05:44:00,20.3,17.0,30.04,NW,316,0.0,0.0,87,0.00,CLR,,0.00,WeatherDisplay:10.37,2013-01-16 11:44:00,
2013-01-16 05:49:00,20.3,17.0,30.04,NW,316,0.0,0.0,87,0.00,CLR,,0.00,WeatherDisplay:10.37,2013-01-16 11:49:00,
2013-01-16 05:54:00,20.2,17.0,30.04,NW,316,0.0,0.0,87,0.00,CLR,,0.00,WeatherDisplay:10.37,2013-01-16 11:54:00,
2013-01-16 05:59:00,20.2,17.0,30.04,NW,316,0.0,0.0,87,0.00,CLR,,0.00,WeatherDisplay:10.37,2013-01-16 11:59:00,
2013-01-16 06:04:00,19.9,16.7,30.03,NW,316,0.0,0.0,87,0.00,CLR,,0.00,WeatherDisplay:10.37,2013-01-16 12:04:00,
2013-01-16 06:09:00,19.9,16.7,30.03,NW,316,0.0,0.0,87,0.00,CLR,,0.00,WeatherDisplay:10.37,2013-01-16 12:09:00,
2013-01-16 06:14:00,19.7,16.5,30.02,NW,316,0.0,0.0,87,0.00,CLR,,0.00,WeatherDisplay:10.37,2013-01-16 12:14:00,
2013-01-16 06:19:00,19.7,16.5,30.02,NW,316,0.0,0.0,87,0.00,CLR,,0.00,WeatherDisplay:10.37,2013-01-16 12:19:00,
2013-01-16 06:24:00,20.2,17.2,30.02,NW,316,0.0,0.0,88,0.00,CLR,,0.00,WeatherDisplay:10.37,2013-01-16 12:24:00,
2013-01-16 06:29:00,20.5,17.5,30.02,NW,316,0.0,0.0,88,0.00,CLR,,0.00,WeatherDisplay:10.37,2013-01-16 12:29:00,
2013-01-16 06:34:00,20.3,17.3,30.02,NW,316,1.1,1.5,88,0.00,CLR,,0.00,WeatherDisplay:10.37,2013-01-16 12:34:00,
2013-01-16 06:39:00,21.0,18.3,30.03,NW,316,0.0,0.0,89,0.00,CLR,,0.00,WeatherDisplay:10.37,2013-01-16 12:39:00,
2013-01-16 06:44:00,21.1,18.4,30.03,NW,316,0.0,0.0,89,0.00,CLR,,0.00,WeatherDisplay:10.37,2013-01-16 12:44:00,
2013-01-16 06:49:00,21.0,18.0,30.03,NW,316,0.5,1.1,88,0.00,CLR,,0.00,WeatherDisplay:10.37,2013-01-16 12:49:00,
2013-01-16 06:54:00,20.6,17.6,30.04,NW,316,0.3,1.1,88,0.00,CLR,,0.00,WeatherDisplay:10.37,2013-01-16 12:54:00,
2013-01-16 06:59:00,20.6,17.6,30.04,NW,316,0.0,0.0,88,0.00,CLR,,0.00,WeatherDisplay:10.37,2013-01-16 12:59:00,
2013-01-16 07:04:00,21.0,18.3,30.04,NW,316,1.2,1.2,89,0.00,CLR,,0.00,WeatherDisplay:10.37,2013-01-16 13:04:00,
2013-01-16 07:09:00,21.1,18.1,30.04,NW,316,0.0,1.1,88,0.00,CLR,,0.00,WeatherDisplay:10.37,2013-01-16 13:09:00,
2013-01-16 07:14:00,20.5,17.5,30.04,NW,316,0.0,0.0,88,0.00,CLR,,0.00,WeatherDisplay:10.37,2013-01-16 13:14:00,
2013-01-16 07:19:00,20.0,16.8,30.04,NW,316,0.0,0.0,87,0.00,CLR,,0.00,WeatherDisplay:10.37,2013-01-16 13:19:00,
2013-01-16 07:24:00,19.7,16.7,30.04,NW,316,0.0,0.0,88,0.00,CLR,,0.00,WeatherDisplay:10.37,2013-01-16 13:24:00,
2013-01-16 07:29:00,19.7,16.7,30.04,NW,316,0.0,0.0,88,0.00,CLR,,0.00,WeatherDisplay:10.37,2013-01-16 13:29:00,
2013-01-16 07:34:00,19.7,16.7,30.05,NW,316,0.0,0.0,88,0.00,CLR,,0.00,WeatherDisplay:10.37,2013-01-16 13:34:00,
2013-01-16 07:39:00,19.7,16.7,30.05,NW,316,0.0,0.0,88,0.00,CLR,,0.00,WeatherDisplay:10.37,2013-01-16 13:39:00,
2013-01-16 07:44:00,19.9,16.9,30.06,NW,316,0.0,0.0,88,0.00,CLR,,0.00,WeatherDisplay:10.37,2013-01-16 13:44:00,
2013-01-16 07:49:00,20.2,17.2,30.06,NW,316,0.0,0.0,88,0.00,CLR,,0.00,WeatherDisplay:10.37,2013-01-16 13:49:00,
2013-01-16 07:54:00,20.6,17.9,30.07,NW,316,0.0,1.1,89,0.00,CLR,,0.00,WeatherDisplay:10.37,2013-01-16 13:54:00,
2013-01-16 07:59:00,21.1,18.4,30.07,NW,316,2.2,4.6,89,0.00,CLR,,0.00,WeatherDisplay:10.37,2013-01-16 13:59:00,
2013-01-16 08:04:00,21.9,19.2,30.07,NW,316,0.0,1.1,89,0.00,CLR,,0.00,WeatherDisplay:10.37,2013-01-16 14:04:00,
2013-01-16 08:09:00,22.2,19.5,30.07,NW,316,0.1,1.5,89,0.00,CLR,,0.00,WeatherDisplay:10.37,2013-01-16 14:09:00,
2013-01-16 08:14:00,22.7,19.9,30.07,NW,316,0.3,1.1,89,0.00,CLR,,0.00,WeatherDisplay:10.37,2013-01-16 14:14:00,
2013-01-16 08:19:00,22.9,20.1,30.06,NW,316,1.1,1.5,89,0.00,CLR,,0.00,WeatherDisplay:10.37,2013-01-16 14:19:00,
2013-01-16 08:24:00,23.0,20.2,30.06,NW,316,0.6,1.1,89,0.00,CLR,,0.00,WeatherDisplay:10.37,2013-01-16 14:24:00,
2013-01-16 08:29:00,23.3,20.5,30.07,ESE,118,1.2,1.5,89,0.00,CLR,,0.00,WeatherDisplay:10.37,2013-01-16 14:29:00,
2013-01-16 08:34:00,23.6,20.6,30.06,South,169,0.0,1.1,88,0.00,CLR,,0.00,WeatherDisplay:10.37,2013-01-16 14:34:00,
2013-01-16 08:39:00,23.8,20.8,30.06,WSW,249,1.4,1.5,88,0.00,CLR,,0.00,WeatherDisplay:10.37,2013-01-16 14:39:00,
2013-01-16 08:44:00,24.1,21.1,30.06,SSW,212,6.6,8.1,88,0.00,CLR,,0.00,WeatherDisplay:10.37,2013-01-16 14:44:00,
2013-01-16 08:49:00,24.2,20.9,30.05,SW,215,0.3,3.5,87,0.00,CLR,,0.00,WeatherDisplay:10.37,2013-01-16 14:49:00,
2013-01-16 08:55:00,24.8,21.5,30.05,SSW,204,0.1,1.1,87,0.00,CLR,,0.00,WeatherDisplay:10.37,2013-01-16 14:55:00,
2013-01-16 09:00:00,25.3,21.7,30.05,SSW,211,2.0,5.0,86,0.00,CLR,,0.00,WeatherDisplay:10.37,2013-01-16 15:00:00,
2013-01-16 09:05:00,25.6,21.7,30.05,SW,225,6.0,8.0,85,0.00,CLR,,0.00,WeatherDisplay:10.37,2013-01-16 15:05:00,
2013-01-16 09:10:00,25.9,21.8,30.04,SW,231,0.0,5.0,84,0.00,CLR,,0.00,WeatherDisplay:10.37,2013-01-16 15:10:00,
2013-01-16 09:14:00,26.3,21.8,30.05,SW,229,0.1,8.1,83,0.00,CLR,,0.00,WeatherDisplay:10.37,2013-01-16 15:14:00,
2013-01-16 09:19:00,26.4,21.7,30.04,SW,230,0.0,0.0,82,0.00,CLR,,0.00,WeatherDisplay:10.37,2013-01-16 15:19:00,
2013-01-16 09:24:00,26.7,21.9,30.04,WSW,253,6.0,9.0,82,0.00,CLR,,0.00,WeatherDisplay:10.37,2013-01-16 15:24:00,
2013-01-16 09:30:00,27.0,21.9,30.04,WSW,240,3.0,6.0,81,0.00,CLR,,0.00,WeatherDisplay:10.37,2013-01-16 15:30:00,
2013-01-16 09:35:00,27.6,22.5,30.05,SW,220,0.0,3.0,81,0.00,CLR,,0.00,WeatherDisplay:10.37,2013-01-16 15:35:00,
2013-01-16 09:40:00,27.8,22.1,30.05,West,259,2.0,9.0,79,0.00,CLR,,0.00,WeatherDisplay:10.37,2013-01-16 15:40:00,
2013-01-16 09:45:00,28.2,22.2,30.05,West,264,1.0,8.0,78,0.00,CLR,,0.00,WeatherDisplay:10.37,2013-01-16 15:45:00,
2013-01-16 09:49:00,28.5,21.6,30.05,West,259,9.6,15.0,75,0.00,CLR,,0.00,WeatherDisplay:10.37,2013-01-16 15:49:00,
2013-01-16 09:55:00,28.2,20.7,30.05,West,259,7.0,14.0,73,0.00,CLR,,0.00,WeatherDisplay:10.37,2013-01-16 15:55:00,
2013-01-16 10:00:00,28.5,20.9,30.05,West,263,2.0,6.0,73,0.00,CLR,,0.00,WeatherDisplay:10.37,2013-01-16 16:00:00,
2013-01-16 10:05:00,28.7,20.8,30.05,WSW,251,2.0,15.0,72,0.00,CLR,,0.00,WeatherDisplay:10.37,2013-01-16 16:05:00,
2013-01-16 10:10:00,29.3,21.7,30.04,WSW,256,6.0,6.0,73,0.00,CLR,,0.00,WeatherDisplay:10.37,2013-01-16 16:10:00,
2013-01-16 10:14:00,29.5,20.2,30.04,WSW,242,4.2,8.1,68,0.00,CLR,,0.00,WeatherDisplay:10.37,2013-01-16 16:14:00,
2013-01-16 10:20:00,29.7,20.1,30.03,West,262,4.5,8.1,67,0.00,CLR,,0.00,WeatherDisplay:10.37,2013-01-16 16:20:00,
2013-01-16 10:25:00,30.0,20.4,30.03,West,263,5.0,12.0,67,0.00,CLR,,0.00,WeatherDisplay:10.37,2013-01-16 16:25:00,
2013-01-16 10:30:00,30.0,20.1,30.03,West,259,2.0,11.0,66,0.00,CLR,,0.00,WeatherDisplay:10.37,2013-01-16 16:30:00,
2013-01-16 10:35:00,30.3,19.6,30.03,WSW,257,8.0,11.0,64,0.00,CLR,,0.00,WeatherDisplay:10.37,2013-01-16 16:35:00,
2013-01-16 10:40:00,30.6,19.9,30.02,WSW,238,5.0,9.0,64,0.00,CLR,,0.00,WeatherDisplay:10.37,2013-01-16 16:40:00,
2013-01-16 10:44:00,30.7,18.8,30.02,SW,229,1.8,4.6,61,0.00,CLR,,0.00,WeatherDisplay:10.37,2013-01-16 16:44:00,
2013-01-16 10:50:00,30.9,19.0,30.01,NNE,28,3.8,9.2,61,0.00,CLR,,0.00,WeatherDisplay:10.37,2013-01-16 16:50:00,
2013-01-16 10:55:00,31.5,19.6,30.01,SW,231,2.0,8.0,61,0.00,CLR,,0.00,WeatherDisplay:10.37,2013-01-16 16:55:00,
2013-01-16 11:00:00,31.6,18.9,30.00,SSW,194,5.0,9.0,59,0.00,CLR,,0.00,WeatherDisplay:10.37,2013-01-16 17:00:00,
2013-01-16 11:05:00,32.0,19.2,30.00,SSW,203,2.0,8.0,59,0.00,CLR,,0.00,WeatherDisplay:10.37,2013-01-16 17:05:00,
2013-01-16 11:10:00,32.2,19.0,30.00,SW,229,3.0,8.0,58,0.00,CLR,,0.00,WeatherDisplay:10.37,2013-01-16 17:10:00,
2013-01-16 11:14:00,32.2,19.1,30.00,South,180,1.8,4.6,58,0.00,CLR,,0.00,WeatherDisplay:10.37,2013-01-16 17:14:00,
2013-01-16 11:20:00,32.4,17.6,30.00,WSW,256,10.8,16.1,54,0.00,CLR,,0.00,WeatherDisplay:10.37,2013-01-16 17:20:00,
2013-01-16 11:25:00,32.2,17.8,30.00,WSW,243,2.0,14.0,55,0.00,CLR,,0.00,WeatherDisplay:10.37,2013-01-16 17:25:00,
2013-01-16 11:30:00,32.8,18.8,29.99,SW,232,5.0,14.0,56,0.00,CLR,,0.00,WeatherDisplay:10.37,2013-01-16 17:30:00,
2013-01-16 11:35:00,33.3,19.3,29.99,WSW,257,2.0,9.0,56,0.00,CLR,,0.00,WeatherDisplay:10.37,2013-01-16 17:35:00,
2013-01-16 11:39:00,33.7,18.4,29.98,SW,236,5.5,8.1,53,0.00,CLR,,0.00,WeatherDisplay:10.37,2013-01-16 17:39:00,
2013-01-16 11:44:00,34.0,18.6,29.98,West,271,1.9,4.6,53,0.00,CLR,,0.00,WeatherDisplay:10.37,2013-01-16 17:44:00,
2013-01-16 11:50:00,34.1,17.8,29.98,WNW,288,0.8,4.6,51,0.00,CLR,,0.00,WeatherDisplay:10.37,2013-01-16 17:50:00,
2013-01-16 11:55:00,34.2,17.9,29.98,SW,232,8.0,14.0,51,0.01,RA,,0.01,WeatherDisplay:10.37,2013-01-16 17:55:00,
2013-01-16 12:00:00,34.3,18.0,29.98,SW,218,3.0,6.0,51,0.00,RA,,0.01,WeatherDisplay:10.37,2013-01-16 18:00:00,
2013-01-16 12:05:00,34.4,18.6,29.98,SW,231,3.0,6.0,52,0.00,CLR,,0.01,WeatherDisplay:10.37,2013-01-16 18:05:00,
2013-01-16 12:09:00,34.4,17.7,29.97,SSE,153,7.0,8.1,50,0.01,CLR,,0.01,WeatherDisplay:10.37,2013-01-16 18:09:00,
2013-01-16 12:14:00,34.7,18.4,29.98,SSE,156,9.1,10.4,51,0.01,CLR,,0.01,WeatherDisplay:10.37,2013-01-16 18:14:00,
2013-01-16 12:20:00,34.7,18.9,29.97,WSW,254,4.2,5.8,52,0.01,CLR,,0.01,WeatherDisplay:10.37,2013-01-16 18:20:00,
2013-01-16 12:25:00,34.7,18.4,29.97,SSW,197,7.0,14.0,51,0.00,CLR,,0.01,WeatherDisplay:10.37,2013-01-16 18:25:00,
2013-01-16 12:30:00,34.7,17.9,29.97,SSW,194,5.0,11.0,50,0.00,CLR,,0.01,WeatherDisplay:10.37,2013-01-16 18:30:00,
2013-01-16 12:35:00,34.7,18.4,29.97,SSW,204,3.0,14.0,51,0.00,CLR,,0.01,WeatherDisplay:10.37,2013-01-16 18:35:00,
2013-01-16 12:39:00,34.9,18.6,29.96,South,172,5.5,5.8,51,0.01,CLR,,0.01,WeatherDisplay:10.37,2013-01-16 18:39:00,
2013-01-16 12:45:00,35.2,18.9,29.97,South,172,4.7,5.8,51,0.01,CLR,,0.01,WeatherDisplay:10.37,2013-01-16 18:45:00,
2013-01-16 12:50:00,35.4,18.5,29.95,South,182,8.0,11.0,50,0.01,RA,,0.02,WeatherDisplay:10.37,2013-01-16 18:50:00,
2013-01-16 12:55:00,35.6,19.7,29.96,South,183,3.0,8.0,52,0.01,RA,,0.02,WeatherDisplay:10.37,2013-01-16 18:55:00,
2013-01-16 13:00:00,35.8,19.4,29.95,SSW,209,7.0,9.0,51,0.00,CLR,,0.02,WeatherDisplay:10.37,2013-01-16 19:00:00,
2013-01-16 13:05:00,35.5,19.6,29.95,South,174,6.2,9.2,52,0.01,CLR,,0.02,WeatherDisplay:10.37,2013-01-16 19:05:00,
2013-01-16 13:10:00,35.6,19.7,29.95,SSE,157,5.5,8.1,52,0.01,CLR,,0.02,WeatherDisplay:10.37,2013-01-16 19:10:00,
2013-01-16 13:15:00,35.9,20.0,29.95,SW,232,2.6,4.6,52,0.01,CLR,,0.02,WeatherDisplay:10.37,2013-01-16 19:15:00,
2013-01-16 13:20:00,36.0,20.1,29.95,WSW,238,1.8,5.8,52,0.01,CLR,,0.02,WeatherDisplay:10.37,2013-01-16 19:20:00,
2013-01-16 13:25:00,36.2,19.8,29.94,WSW,250,8.0,10.4,51,0.01,CLR,,0.02,WeatherDisplay:10.37,2013-01-16 19:25:00,
2013-01-16 13:30:00,36.0,19.1,29.94,WSW,239,6.3,8.1,50,0.01,CLR,,0.02,WeatherDisplay:10.37,2013-01-16 19:30:00,
2013-01-16 13:35:00,36.3,20.3,29.95,SW,219,3.1,3.5,52,0.01,CLR,,0.02,WeatherDisplay:10.37,2013-01-16 19:35:00,
2013-01-16 13:40:00,36.5,20.5,29.95,SSE,168,4.7,8.1,52,0.01,CLR,,0.02,WeatherDisplay:10.37,2013-01-16 19:40:00,
2013-01-16 13:45:00,36.5,19.6,29.95,SSW,197,7.0,10.4,50,0.01,CLR,,0.02,WeatherDisplay:10.37,2013-01-16 19:45:00,
2013-01-16 13:50:00,36.3,19.9,29.95,WSW,248,6.5,8.1,51,0.01,RA,,0.03,WeatherDisplay:10.37,2013-01-16 19:50:00,
2013-01-16 13:55:00,36.6,20.2,29.95,SSE,165,4.2,8.1,51,0.01,RA,,0.03,WeatherDisplay:10.37,2013-01-16 19:55:00,
2013-01-16 14:00:00,36.9,20.0,29.95,SSW,212,7.4,9.2,50,0.01,CLR,,0.03,WeatherDisplay:10.37,2013-01-16 20:00:00,
2013-01-16 14:05:00,36.8,19.9,29.94,SSW,192,3.2,5.8,50,0.01,CLR,,0.03,WeatherDisplay:10.37,2013-01-16 20:05:00,
2013-01-16 14:10:00,36.9,20.4,29.94,SW,234,6.1,9.0,51,0.01,CLR,,0.03,WeatherDisplay:10.37,2013-01-16 20:10:00,
2013-01-16 14:15:00,36.8,19.9,29.94,South,177,5.2,8.1,50,0.01,CLR,,0.03,WeatherDisplay:10.37,2013-01-16 20:15:00,
2013-01-16 14:20:00,36.5,20.1,29.94,SW,225,9.8,10.4,51,0.01,CLR,,0.03,WeatherDisplay:10.37,2013-01-16 20:20:00,
2013-01-16 14:25:00,36.3,20.3,29.93,South,171,8.1,8.1,52,0.01,CLR,,0.03,WeatherDisplay:10.37,2013-01-16 20:25:00,
2013-01-16 14:30:00,36.0,19.6,29.94,SSW,207,8.1,9.2,51,0.01,CLR,,0.03,WeatherDisplay:10.37,2013-01-16 20:30:00,
2013-01-16 14:35:00,36.0,20.5,29.93,SSE,150,6.0,8.1,53,0.01,CLR,,0.03,WeatherDisplay:10.37,2013-01-16 20:35:00,
2013-01-16 14:40:00,35.9,20.4,29.93,WSW,238,0.6,4.6,53,0.01,CLR,,0.03,WeatherDisplay:10.37,2013-01-16 20:40:00,
2013-01-16 14:45:00,36.2,20.7,29.93,SW,225,4.6,5.8,53,0.01,CLR,,0.03,WeatherDisplay:10.37,2013-01-16 20:45:00,
2013-01-16 14:50:00,36.2,21.1,29.93,South,184,4.8,5.8,54,0.00,CLR,,0.03,WeatherDisplay:10.37,2013-01-16 20:50:00,
2013-01-16 14:55:00,36.2,20.7,29.93,West,259,5.5,10.4,53,0.00,CLR,,0.03,WeatherDisplay:10.37,2013-01-16 20:55:00,
2013-01-16 15:00:00,36.0,20.5,29.93,South,190,6.7,8.1,53,0.00,CLR,,0.03,WeatherDisplay:10.37,2013-01-16 21:00:00,
2013-01-16 15:05:00,36.2,21.6,29.94,South,178,3.6,4.6,55,0.00,CLR,,0.03,WeatherDisplay:10.37,2013-01-16 21:05:00,
2013-01-16 15:10:00,36.2,20.7,29.94,SW,214,4.5,5.8,53,0.00,CLR,,0.03,WeatherDisplay:10.37,2013-01-16 21:10:00,
2013-01-16 15:15:00,36.0,20.9,29.94,SW,225,3.7,4.6,54,0.00,CLR,,0.03,WeatherDisplay:10.37,2013-01-16 21:15:00,
2013-01-16 15:20:00,36.0,21.4,29.94,SW,232,4.0,9.2,55,0.00,CLR,,0.03,WeatherDisplay:10.37,2013-01-16 21:20:00,
2013-01-16 15:25:00,36.0,21.4,29.94,SSW,200,3.9,5.8,55,0.00,CLR,,0.03,WeatherDisplay:10.37,2013-01-16 21:25:00,
2013-01-16 15:30:00,35.9,21.7,29.94,South,180,7.1,10.4,56,0.00,CLR,,0.03,WeatherDisplay:10.37,2013-01-16 21:30:00,
2013-01-16 15:35:00,35.9,21.7,29.95,ESE,112,0.4,1.5,56,0.00,CLR,,0.03,WeatherDisplay:10.37,2013-01-16 21:35:00,
2013-01-16 15:40:00,35.8,21.2,29.95,WSW,243,4.5,5.8,55,0.00,CLR,,0.03,WeatherDisplay:10.37,2013-01-16 21:40:00,
2013-01-16 15:45:00,35.8,22.0,29.95,SSE,167,2.8,3.5,57,0.00,CLR,,0.03,WeatherDisplay:10.37,2013-01-16 21:45:00,
2013-01-16 15:50:00,35.8,22.0,29.95,SSW,192,5.9,10.4,57,0.00,CLR,,0.03,WeatherDisplay:10.37,2013-01-16 21:50:00,
2013-01-16 15:55:00,35.8,22.5,29.96,NW,304,1.2,6.0,58,0.00,CLR,,0.03,WeatherDisplay:10.37,2013-01-16 21:55:00,
2013-01-16 16:00:00,35.6,22.3,29.97,South,178,7.7,10.4,58,0.00,CLR,,0.03,WeatherDisplay:10.37,2013-01-16 22:00:00,
2013-01-16 16:05:00,35.8,22.9,29.97,SSW,212,1.0,3.5,59,0.00,CLR,,0.03,WeatherDisplay:10.37,2013-01-16 22:05:00,
2013-01-16 16:10:00,35.6,22.3,29.97,South,176,2.3,4.6,58,0.00,CLR,,0.03,WeatherDisplay:10.37,2013-01-16 22:10:00,
2013-01-16 16:15:00,35.5,22.2,29.97,SW,219,5.7,9.2,58,0.00,CLR,,0.03,WeatherDisplay:10.37,2013-01-16 22:15:00,
2013-01-16 16:20:00,35.3,22.4,29.98,South,175,6.0,6.0,59,0.00,CLR,,0.03,WeatherDisplay:10.37,2013-01-16 22:20:00,
2013-01-16 16:25:00,35.2,22.3,29.98,SSE,163,4.9,4.9,59,0.00,CLR,,0.03,WeatherDisplay:10.37,2013-01-16 22:25:00,
2013-01-16 16:30:00,34.9,22.0,29.98,WSW,255,2.2,5.8,59,0.00,CLR,,0.03,WeatherDisplay:10.37,2013-01-16 22:30:00,
2013-01-16 16:35:00,34.9,22.4,29.98,West,268,2.8,4.6,60,0.00,CLR,,0.03,WeatherDisplay:10.37,2013-01-16 22:35:00,
2013-01-16 16:40:00,34.7,22.2,29.98,SE,142,0.9,1.5,60,0.00,CLR,,0.03,WeatherDisplay:10.37,2013-01-16 22:40:00,
2013-01-16 16:45:00,34.6,22.5,29.98,South,187,2.7,4.6,61,0.00,CLR,,0.03,WeatherDisplay:10.37,2013-01-16 22:45:00,
2013-01-16 16:50:00,34.4,22.3,29.98,South,187,1.8,3.5,61,0.00,CLR,,0.03,WeatherDisplay:10.37,2013-01-16 22:50:00,
2013-01-16 16:55:00,34.3,22.6,29.99,SSE,161,5.7,8.1,62,0.00,CLR,,0.03,WeatherDisplay:10.37,2013-01-16 22:55:00,
2013-01-16 17:00:00,34.1,22.4,29.99,ESE,117,3.9,5.8,62,0.00,CLR,,0.03,WeatherDisplay:10.37,2013-01-16 23:00:00,
2013-01-16 17:05:00,34.1,22.4,29.99,West,259,0.8,3.5,62,0.00,CLR,,0.03,WeatherDisplay:10.37,2013-01-16 23:05:00,
2013-01-16 17:10:00,34.0,22.7,30.00,South,182,2.7,4.6,63,0.00,CLR,,0.03,WeatherDisplay:10.37,2013-01-16 23:10:00,
2013-01-16 17:15:00,33.8,22.5,30.00,WSW,240,0.0,1.1,63,0.00,CLR,,0.03,WeatherDisplay:10.37,2013-01-16 23:15:00,
2013-01-16 17:20:00,33.7,22.8,30.00,South,184,2.2,5.8,64,0.00,CLR,,0.03,WeatherDisplay:10.37,2013-01-16 23:20:00,
2013-01-16 17:25:00,33.7,22.8,30.00,SSE,152,2.6,3.5,64,0.00,CLR,,0.03,WeatherDisplay:10.37,2013-01-16 23:25:00,
2013-01-16 17:30:00,33.7,22.8,30.00,South,186,0.6,4.5,64,0.00,CLR,,0.03,WeatherDisplay:10.37,2013-01-16 23:30:00,
2013-01-16 17:35:00,33.7,23.2,30.00,South,186,2.2,2.2,65,0.00,SCT,,0.03,WeatherDisplay:10.37,2013-01-16 23:35:00,
2013-01-16 17:40:00,33.8,23.3,30.00,South,169,3.7,5.8,65,0.00,SCT,,0.03,WeatherDisplay:10.37,2013-01-16 23:40:00,
2013-01-16 17:45:00,34.0,23.1,30.00,South,177,2.0,3.5,64,0.00,SCT,,0.03,WeatherDisplay:10.37,2013-01-16 23:45:00,
2013-01-16 17:50:00,34.0,23.5,30.00,South,181,8.0,8.0,65,0.00,SCT,,0.03,WeatherDisplay:10.37,2013-01-16 23:50:00,
2013-01-16 17:55:00,34.1,23.6,30.00,West,269,2.6,5.8,65,0.00,BKN,,0.03,WeatherDisplay:10.37,2013-01-16 23:55:00,
2013-01-16 18:00:00,34.1,23.6,30.00,SSE,166,1.7,4.5,65,0.00,BKN,,0.03,WeatherDisplay:10.37,2013-01-17 00:00:00,
2013-01-16 18:05:00,34.1,23.6,30.01,SW,215,5.3,5.8,65,0.00,BKN,,0.03,WeatherDisplay:10.37,2013-01-17 00:05:00,
2013-01-16 18:10:00,34.3,23.7,30.01,SE,144,5.4,5.4,65,0.00,BKN,,0.03,WeatherDisplay:10.37,2013-01-17 00:10:00,
2013-01-16 18:15:00,34.4,23.5,30.01,SSE,163,3.7,13.8,64,0.00,OVC,,0.03,WeatherDisplay:10.37,2013-01-17 00:15:00,
2013-01-16 18:20:00,34.4,23.5,30.02,South,187,7.5,7.5,64,0.00,OVC,,0.03,WeatherDisplay:10.37,2013-01-17 00:20:00,
2013-01-16 18:25:00,34.4,23.5,30.02,South,179,5.0,5.0,64,0.00,OVC,,0.03,WeatherDisplay:10.37,2013-01-17 00:25:00,
2013-01-16 18:30:00,34.6,23.7,30.02,SSW,193,2.8,4.6,64,0.00,OVC,,0.03,WeatherDisplay:10.37,2013-01-17 00:30:00,
2013-01-16 18:35:00,34.6,23.7,30.02,SW,214,1.4,9.2,64,0.00,OVC,,0.03,WeatherDisplay:10.37,2013-01-17 00:35:00,
2013-01-16 18:40:00,34.7,23.8,30.02,SSW,200,3.1,8.1,64,0.00,OVC,,0.03,WeatherDisplay:10.37,2013-01-17 00:40:00,
2013-01-16 18:45:00,34.7,23.4,30.03,SSE,155,3.5,8.1,63,0.00,OVC,,0.03,WeatherDisplay:10.37,2013-01-17 00:45:00,
2013-01-16 18:50:00,34.9,23.6,30.02,South,177,4.8,10.4,63,0.00,OVC,,0.03,WeatherDisplay:10.37,2013-01-17 00:50:00,
2013-01-16 18:55:00,34.9,23.6,30.03,South,175,5.7,5.8,63,0.00,OVC,,0.03,WeatherDisplay:10.37,2013-01-17 00:55:00,
2013-01-16 19:00:00,35.0,23.7,30.03,WSW,258,3.8,5.8,63,0.00,OVC,,0.03,WeatherDisplay:10.37,2013-01-17 01:00:00,
2013-01-16 19:05:00,35.0,23.7,30.03,SW,230,5.9,5.9,63,0.00,OVC,,0.03,WeatherDisplay:10.37,2013-01-17 01:05:00,
2013-01-16 19:10:00,35.0,23.7,30.03,SSW,194,3.4,5.8,63,0.00,OVC,,0.03,WeatherDisplay:10.37,2013-01-17 01:10:00,
2013-01-16 19:15:00,35.0,23.7,30.03,SSW,193,6.8,6.8,63,0.00,OVC,,0.03,WeatherDisplay:10.37,2013-01-17 01:15:00,
2013-01-16 19:20:00,35.0,23.7,30.03,SW,236,8.4,9.2,63,0.00,OVC,,0.03,WeatherDisplay:10.37,2013-01-17 01:20:00,
2013-01-16 19:25:00,35.0,24.0,30.03,SW,229,1.8,4.6,64,0.00,OVC,,0.03,WeatherDisplay:10.37,2013-01-17 01:25:00,
2013-01-16 19:30:00,35.0,24.0,30.03,SW,225,3.8,8.1,64,0.00,OVC,,0.03,WeatherDisplay:10.37,2013-01-17 01:30:00,
2013-01-16 19:35:00,35.0,24.0,30.04,WSW,248,3.9,9.2,64,0.00,OVC,,0.03,WeatherDisplay:10.37,2013-01-17 01:35:00,
2013-01-16 19:40:00,35.0,24.0,30.04,WSW,246,2.5,3.5,64,0.00,OVC,,0.03,WeatherDisplay:10.37,2013-01-17 01:40:00,
2013-01-16 19:45:00,35.0,24.0,30.05,SW,236,4.8,5.8,64,0.00,OVC,,0.03,WeatherDisplay:10.37,2013-01-17 01:45:00,
2013-01-16 19:50:00,35.0,24.0,30.05,South,178,4.1,4.6,64,0.00,OVC,,0.03,WeatherDisplay:10.37,2013-01-17 01:50:00,
2013-01-16 19:55:00,35.0,24.0,30.05,SSE,148,1.2,1.5,64,0.00,OVC,,0.03,WeatherDisplay:10.37,2013-01-17 01:55:00,
2013-01-16 20:00:00,35.0,24.0,30.04,WSW,258,4.5,6.0,64,0.00,OVC,,0.03,WeatherDisplay:10.37,2013-01-17 02:00:00,
2013-01-16 20:06:00,35.0,24.4,30.04,SSW,192,3.4,4.6,65,0.00,OVC,,0.03,WeatherDisplay:10.37,2013-01-17 02:06:00,
2013-01-16 20:11:00,35.0,24.0,30.04,SSW,200,6.2,10.4,64,0.00,OVC,,0.03,WeatherDisplay:10.37,2013-01-17 02:11:00,
2013-01-16 20:16:00,35.0,24.4,30.04,SSW,210,8.6,8.6,65,0.00,OVC,,0.03,WeatherDisplay:10.37,2013-01-17 02:16:00,
2013-01-16 20:21:00,35.0,24.4,30.04,West,265,1.5,3.5,65,0.00,OVC,,0.03,WeatherDisplay:10.37,2013-01-17 02:21:00,
2013-01-16 20:26:00,35.0,24.4,30.04,South,190,2.9,3.5,65,0.00,OVC,,0.03,WeatherDisplay:10.37,2013-01-17 02:26:00,
2013-01-16 20:31:00,34.9,24.7,30.04,WSW,246,5.4,5.8,66,0.00,OVC,,0.03,WeatherDisplay:10.37,2013-01-17 02:31:00,
2013-01-16 20:36:00,34.9,24.7,30.04,WSW,249,1.2,3.5,66,0.00,OVC,,0.03,WeatherDisplay:10.37,2013-01-17 02:36:00,
2013-01-16 20:41:00,34.7,24.5,30.04,SSW,194,1.9,3.5,66,0.00,OVC,,0.03,WeatherDisplay:10.37,2013-01-17 02:41:00,
2013-01-16 20:46:00,34.7,24.5,30.04,NW,304,1.1,3.5,66,0.00,OVC,,0.03,WeatherDisplay:10.37,2013-01-17 02:46:00,
2013-01-16 20:51:00,34.7,24.5,30.04,SW,235,2.7,4.6,66,0.00,OVC,,0.03,WeatherDisplay:10.37,2013-01-17 02:51:00,
2013-01-16 20:56:00,34.7,24.5,30.05,WSW,239,3.1,6.0,66,0.00,OVC,,0.03,WeatherDisplay:10.37,2013-01-17 02:56:00,
2013-01-16 21:01:00,34.7,24.9,30.04,South,181,3.1,4.6,67,0.00,OVC,,0.03,WeatherDisplay:10.37,2013-01-17 03:01:00,
2013-01-16 21:06:00,34.7,24.9,30.03,SE,136,4.0,4.6,67,0.00,OVC,,0.03,WeatherDisplay:10.37,2013-01-17 03:06:00,
2013-01-16 21:11:00,34.6,24.8,30.03,SW,234,2.0,4.6,67,0.00,OVC,,0.03,WeatherDisplay:10.37,2013-01-17 03:11:00,
2013-01-16 21:16:00,34.4,24.9,30.03,West,273,3.3,6.0,68,0.00,OVC,,0.03,WeatherDisplay:10.37,2013-01-17 03:16:00,
2013-01-16 21:21:00,34.1,24.6,30.03,North,5,1.2,3.5,68,0.00,OVC,,0.03,WeatherDisplay:10.37,2013-01-17 03:21:00,
2013-01-16 21:26:00,34.0,24.5,30.04,WSW,257,0.0,0.0,68,0.00,OVC,,0.03,WeatherDisplay:10.37,2013-01-17 03:26:00,
2013-01-16 21:31:00,33.7,24.6,30.04,WSW,251,2.5,4.5,69,0.00,BKN,,0.03,WeatherDisplay:10.37,2013-01-17 03:31:00,
2013-01-16 21:36:00,33.7,24.6,30.04,WSW,240,0.6,1.5,69,0.00,BKN,,0.03,WeatherDisplay:10.37,2013-01-17 03:36:00,
2013-01-16 21:41:00,33.7,25.0,30.04,West,274,3.8,7.5,70,0.00,BKN,,0.03,WeatherDisplay:10.37,2013-01-17 03:41:00,
2013-01-16 21:46:00,33.8,25.0,30.05,NW,326,4.9,5.8,70,0.00,BKN,,0.03,WeatherDisplay:10.37,2013-01-17 03:46:00,
2013-01-16 21:51:00,34.0,25.2,30.05,West,268,1.6,5.8,70,0.00,BKN,,0.03,WeatherDisplay:10.37,2013-01-17 03:51:00,
2013-01-16 21:56:00,34.0,25.2,30.05,SW,232,1.7,1.7,70,0.00,BKN,,0.03,WeatherDisplay:10.37,2013-01-17 03:56:00,
2013-01-16 22:01:00,34.0,25.2,30.05,WNW,287,1.1,1.1,70,0.00,BKN,,0.03,WeatherDisplay:10.37,2013-01-17 04:01:00,
2013-01-16 22:06:00,34.0,25.2,30.04,WNW,287,0.5,1.5,70,0.00,BKN,,0.03,WeatherDisplay:10.37,2013-01-17 04:06:00,
2013-01-16 22:11:00,33.8,25.0,30.04,WNW,286,1.1,3.0,70,0.00,OVC,,0.03,WeatherDisplay:10.37,2013-01-17 04:11:00,
2013-01-16 22:16:00,33.8,25.4,30.04,WNW,286,0.0,0.0,71,0.00,OVC,,0.03,WeatherDisplay:10.37,2013-01-17 04:16:00,
2013-01-16 22:21:00,33.7,25.3,30.04,WNW,286,1.3,3.0,71,0.00,OVC,,0.03,WeatherDisplay:10.37,2013-01-17 04:21:00,
2013-01-16 22:26:00,33.7,25.3,30.04,WNW,286,1.7,4.6,71,0.00,OVC,,0.03,WeatherDisplay:10.37,2013-01-17 04:26:00,
2013-01-16 22:31:00,33.7,25.6,30.04,WNW,286,0.9,3.0,72,0.00,OVC,,0.03,WeatherDisplay:10.37,2013-01-17 04:31:00,
2013-01-16 22:36:00,33.7,25.6,30.04,WNW,286,0.6,3.0,72,0.00,OVC,,0.03,WeatherDisplay:10.37,2013-01-17 04:36:00,
2013-01-16 22:41:00,33.7,25.6,30.04,NW,314,1.9,3.5,72,0.00,OVC,,0.03,WeatherDisplay:10.37,2013-01-17 04:41:00,
2013-01-16 22:46:00,33.5,25.4,30.04,NW,309,1.6,4.6,72,0.00,OVC,,0.03,WeatherDisplay:10.37,2013-01-17 04:46:00,
2013-01-16 22:51:00,33.5,25.4,30.04,WNW,292,2.1,5.8,72,0.00,BKN,,0.03,WeatherDisplay:10.37,2013-01-17 04:51:00,
2013-01-16 22:56:00,33.5,25.8,30.04,WSW,250,0.0,5.8,73,0.00,BKN,,0.03,WeatherDisplay:10.37,2013-01-17 04:56:00,
2013-01-16 23:01:00,33.5,25.8,30.04,SW,231,0.0,4.6,73,0.00,BKN,,0.03,WeatherDisplay:10.37,2013-01-17 05:01:00,
2013-01-16 23:02:00,33.5,25.8,30.04,SW,230,0.0,0.0,73,0.00,BKN,,0.03,WeatherDisplay:10.37,2013-01-17 05:02:00,
2013-01-16 23:03:00,33.4,25.7,30.04,SW,230,0.0,0.0,73,0.00,BKN,,0.03,WeatherDisplay:10.37,2013-01-17 05:03:00,
2013-01-16 23:08:00,33.5,26.1,30.04,WSW,240,1.8,3.5,74,0.00,BKN,,0.03,WeatherDisplay:10.37,2013-01-17 05:08:00,
2013-01-16 23:13:00,33.5,26.1,30.04,West,264,1.4,1.4,74,0.00,SCT,,0.03,WeatherDisplay:10.37,2013-01-17 05:13:00,
2013-01-16 23:18:00,33.5,26.1,30.04,SW,234,2.2,3.5,74,0.00,SCT,,0.03,WeatherDisplay:10.37,2013-01-17 05:18:00,
2013-01-16 23:23:00,33.5,26.1,30.04,WSW,250,1.3,4.6,74,0.00,SCT,,0.03,WeatherDisplay:10.37,2013-01-17 05:23:00,
2013-01-16 23:28:00,33.4,26.0,30.05,WSW,252,0.1,0.0,74,0.00,SCT,,0.03,WeatherDisplay:10.37,2013-01-17 05:28:00,
2013-01-16 23:33:00,33.1,25.7,30.05,WSW,251,0.0,0.0,74,0.00,CLR,,0.03,WeatherDisplay:10.37,2013-01-17 05:33:00,
2013-01-16 23:38:00,32.9,25.5,30.05,WSW,252,0.0,0.0,74,0.00,CLR,,0.03,WeatherDisplay:10.37,2013-01-17 05:38:00,
2013-01-16 23:43:00,32.5,25.1,30.05,WSW,252,0.0,0.0,74,0.00,CLR,,0.03,WeatherDisplay:10.37,2013-01-17 05:43:00,
2013-01-16 23:48:00,32.4,25.4,30.05,WSW,250,0.0,0.0,75,0.00,CLR,,0.03,WeatherDisplay:10.37,2013-01-17 05:48:00,
2013-01-16 23:53:00,32.1,25.4,30.05,WSW,250,0.0,1.1,76,0.00,SCT,,0.03,WeatherDisplay:10.37,2013-01-17 05:53:00,
2013-01-16 23:58:00,31.9,25.2,30.06,WSW,250,0.0,0.0,76,0.00,SCT,,0.03,WeatherDisplay:10.37,2013-01-17 05:58:00,